timestamp,surface_pressure_avg,surface_temp_avg,battery_voltage,lat,long
2024-02-21 00:09:01+00:00,276.5764,0.3,11.22,47.84626,-54.09684
2024-02-21 00:19:00+00:00,273.0614,0.28,11.22,47.84626,-54.09684
2024-02-21 00:29:00+00:00,265.3847,0.2,11.22,47.84626,-54.09684
2024-02-21 00:39:00+00:00,260.0998,0.2,11.22,47.84626,-54.09684
2024-02-21 00:49:00+00:00,257.4431,0.2,11.22,47.84626,-54.09684
2024-02-21 00:59:00+00:00,254.5131,0.2,11.22,47.84626,-54.09684
2024-02-21 01:09:00+00:00,248.0497,0.19,11.22,47.84626,-54.09684
2024-02-21 01:19:00+00:00,242.5181,0.1,11.22,47.84626,-54.09684
2024-02-21 01:29:00+00:00,239.6781,0.1,11.22,47.84626,-54.09684
2024-02-21 01:39:00+00:00,236.6147,0.1,11.22,47.84626,-54.09684
2024-02-21 01:49:00+00:00,230.5397,0.1,11.22,47.84626,-54.09684
2024-02-21 01:59:00+00:00,227.7398,0.1,11.22,47.84626,-54.09684
2024-02-21 02:09:00+00:00,228.0081,0.1,11.22,47.84626,-54.09684
2024-02-21 02:19:01+00:00,224.0081,0.1,11.22,47.84626,-54.09684
2024-02-21 02:29:01+00:00,222.3881,0.1,11.22,47.84626,-54.09684
2024-02-21 02:39:01+00:00,225.3214,0.1,11.22,47.84626,-54.09684
2024-02-21 02:49:01+00:00,223.0164,0.1,11.22,47.84626,-54.09684
2024-02-21 02:59:01+00:00,218.7948,0.1,11.22,47.84626,-54.09684
2024-02-21 03:09:01+00:00,221.4448,0.1,11.22,47.84626,-54.09684
2024-02-21 11:19:00+00:00,328.2647,-0.25,11.46,47.84626,-54.09684
2024-02-21 11:29:00+00:00,329.6063,-0.26,11.46,47.84626,-54.09684
2024-02-21 11:39:00+00:00,332.8913,-0.25,11.46,47.84626,-54.09684
2024-02-21 11:49:00+00:00,323.2847,-0.26,11.46,47.84626,-54.09684
2024-02-21 11:59:00+00:00,316.8313,-0.22,11.46,47.84626,-54.09684
2024-02-21 12:09:00+00:00,319.913,-0.21,11.46,47.84626,-54.09684
2024-02-21 12:19:00+00:00,316.4263,-0.21,12.01,47.84626,-54.09684
2024-02-21 12:29:00+00:00,304.0331,-0.22,12.01,47.84626,-54.09684
2024-02-21 12:39:00+00:00,298.52299999999997,-0.21,12.01,47.84626,-54.09684
2024-02-21 12:49:00+00:00,298.4413,-0.22,12.01,47.84626,-54.09684
2024-02-21 12:59:00+00:00,290.3064,-0.24,12.01,47.84626,-54.09684
2024-02-21 13:09:00+00:00,283.2981,-0.28,12.01,47.84626,-54.09684
2024-02-21 13:19:00+00:00,281.2214,-0.29,12.09,47.84626,-54.09684
2024-02-21 13:29:00+00:00,279.5847,-0.3,12.09,47.84626,-54.09684
2024-02-21 13:39:00+00:00,272.4698,-0.3,12.09,47.84626,-54.09684
2024-02-21 13:49:00+00:00,271.2314,-0.3,12.09,47.84626,-54.09684
2024-02-21 13:59:00+00:00,269.6364,-0.3,12.09,47.84626,-54.09684
2024-02-21 14:09:00+00:00,263.4348,-0.3,12.09,47.84626,-54.09684
2024-02-21 14:19:00+00:00,258.1964,-0.3,12.17,47.84626,-54.09684
2024-02-21 14:29:00+00:00,258.7447,-0.3,12.17,47.84626,-54.09684
2024-02-21 14:39:00+00:00,253.8514,-0.29,12.17,47.84626,-54.09684
2024-02-21 14:49:00+00:00,244.2747,-0.27,12.17,47.84626,-54.09684
2024-02-21 14:59:00+00:00,243.3831,-0.28,12.17,47.84626,-54.09684
2024-02-21 15:09:00+00:00,244.9697,-0.23,12.17,47.84626,-54.09684
2024-02-21 15:19:00+00:00,236.1047,-0.2,12.17,47.84626,-54.09684
2024-02-21 15:29:00+00:00,228.3697,-0.2,12.17,47.84626,-54.09684
2024-02-21 15:39:00+00:00,232.2931,-0.2,12.17,47.84626,-54.09684
2024-02-21 15:49:00+00:00,227.4865,-0.2,12.17,47.84626,-54.09684
2024-02-21 15:59:00+00:00,218.5381,-0.16,12.17,47.84626,-54.09684
2024-02-21 16:09:00+00:00,220.3998,-0.14,12.17,47.84626,-54.09684
2024-02-21 16:19:01+00:00,222.4831,-0.14,12.17,47.84626,-54.09684
2024-02-21 16:29:01+00:00,217.4298,-0.13,12.17,47.84626,-54.09684
2024-02-21 16:39:01+00:00,212.3748,-0.1,12.17,47.84626,-54.09684
2024-02-21 16:49:01+00:00,216.8931,-0.1,12.17,47.84626,-54.09684
2024-02-21 16:59:01+00:00,224.1681,-0.1,12.17,47.84626,-54.09684
2024-02-21 17:09:01+00:00,222.4131,-0.1,12.17,47.84626,-54.09684
2024-02-21 17:19:00+00:00,222.5048,-0.1,12.17,47.84626,-54.09684
2024-02-21 17:29:00+00:00,232.5614,-0.1,12.17,47.84626,-54.09684
2024-02-21 17:39:00+00:00,234.9464,-0.1,12.17,47.84626,-54.09684
2024-02-21 17:49:00+00:00,231.0147,-0.1,12.17,47.84626,-54.09684
2024-02-21 17:59:00+00:00,233.1448,-0.04,12.17,47.84626,-54.09684
2024-02-21 18:09:00+00:00,242.7198,-0.02,12.17,47.84626,-54.09684
2024-02-21 18:19:00+00:00,242.3014,-0.0,12.01,47.84626,-54.09684
2024-02-21 18:29:00+00:00,243.9298,0.0,12.01,47.84626,-54.09684
2024-02-21 18:39:00+00:00,250.0297,0.0,12.01,47.84626,-54.09684
2024-02-21 18:49:00+00:00,253.0547,0.0,12.01,47.84626,-54.09684
2024-02-21 18:59:00+00:00,254.1797,0.0,12.01,47.84626,-54.09684
2024-02-21 19:09:00+00:00,261.223,0.0,12.01,47.84626,-54.09684
2024-02-21 19:19:00+00:00,265.4264,0.0,11.86,47.84626,-54.09684
2024-02-21 19:29:00+00:00,266.0464,0.0,11.86,47.84626,-54.09684
2024-02-21 19:39:00+00:00,272.8714,0.0,11.86,47.84626,-54.09684
2024-02-21 19:49:00+00:00,283.9864,0.0,11.86,47.84626,-54.09684
2024-02-21 19:59:00+00:00,286.9314,0.0,11.86,47.84626,-54.09684
2024-02-21 20:09:00+00:00,292.6213,0.0,11.86,47.84626,-54.09684
2024-02-21 20:19:00+00:00,299.868,0.0,11.61,47.84626,-54.09684
2024-02-21 20:29:00+00:00,304.6364,-0.0,11.61,47.84626,-54.09684
2024-02-21 20:39:00+00:00,305.5214,-0.0,11.61,47.84626,-54.09684
2024-02-21 20:49:00+00:00,307.808,-0.0,11.61,47.84626,-54.09684
2024-02-21 20:59:00+00:00,313.863,-0.01,11.61,47.84626,-54.09684
2024-02-21 21:09:00+00:00,315.228,-0.05,11.61,47.84626,-54.09684
2024-02-21 21:19:00+00:00,315.8563,-0.1,11.53,47.84626,-54.09684
2024-02-21 21:29:00+00:00,320.0779,-0.1,11.53,47.84626,-54.09684
2024-02-21 21:39:00+00:00,329.8046,-0.1,11.53,47.84626,-54.09684
2024-02-21 21:49:00+00:00,330.4896,-0.1,11.53,47.84626,-54.09684
2024-02-21 21:59:00+00:00,325.613,-0.1,11.53,47.84626,-54.09684
2024-02-21 22:09:00+00:00,330.1330000000001,-0.1,11.53,47.84626,-54.09684
2024-02-21 22:19:00+00:00,332.8613,-0.1,11.46,47.84626,-54.09684
2024-02-21 22:29:00+00:00,330.4863,-0.1,11.46,47.84626,-54.09684
2024-02-21 22:39:00+00:00,328.713,-0.1,11.46,47.84626,-54.09684
2024-02-21 22:49:00+00:00,327.3664,-0.1,11.46,47.84626,-54.09684
2024-02-21 22:59:00+00:00,326.4796,-0.1,11.46,47.84626,-54.09684
2024-02-21 23:09:00+00:00,324.8362,-0.1,11.46,47.84626,-54.09684
2024-02-21 23:19:00+00:00,322.0713,-0.1,11.46,47.84626,-54.09684
2024-02-21 23:29:00+00:00,321.778,-0.1,11.46,47.84626,-54.09684
2024-02-21 23:39:00+00:00,321.0197,-0.1,11.46,47.84626,-54.09684
2024-02-21 23:49:00+00:00,316.8313,-0.11,11.46,47.84626,-54.09684
2024-02-21 23:59:00+00:00,309.828,-0.1,11.46,47.84626,-54.09684
